• In Hungary
  • List of Countries
  • For 7 days
  • Water Temperature
  • Satellite Maps
  • Weather Map
  • News
  • Weather Widgets
  • user-avatar
    Login

    Hourly Weather Bocas del Toro

    Today, 21 October, Saturday

    Time Temperature Precipitation Wind Pressure Humidity
    00:00 +29°C° 0.2 mm 2 mps 756 mmHg 87%
    01:00 +29°C° 0.2 mm 2 mps 756 mmHg 86%
    02:00 +29°C° 0.3 mm 2 mps 756 mmHg 85%
    03:00 +29°C° 0.3 mm 3 mps 756 mmHg 83%
    04:00 +29°C° 0.3 mm 3 mps 756 mmHg 82%
    05:00 +29°C° 0.8 mm 3 mps 756 mmHg 81%
    06:00 +29°C° 0.8 mm 3 mps 756 mmHg 81%
    07:00 +29°C° 0.8 mm 3 mps 756 mmHg 80%
    08:00 +31°C° 0.3 mm 3 mps 757 mmHg 72%
    09:00 +33°C° 0.3 mm 3 mps 757 mmHg 64%
    10:00 +35°C° 0.3 mm 3 mps 758 mmHg 55%
    11:00 +36°C° 0.1 mm 4 mps 757 mmHg 55%
    12:00 +36°C° 0.1 mm 4 mps 757 mmHg 55%
    13:00 +36°C° 0.1 mm 4 mps 756 mmHg 54%
    14:00 +36°C° 0.2 mm 4 mps 756 mmHg 58%
    15:00 +35°C° 0.2 mm 4 mps 755 mmHg 61%
    16:00 +34°C° 0.2 mm 4 mps 755 mmHg 65%
    17:00 +33°C° 0.6 mm 3 mps 755 mmHg 73%
    18:00 +31°C° 0.6 mm 3 mps 756 mmHg 80%
    19:00 +29°C° 0.6 mm 2 mps 756 mmHg 88%
    20:00 +29°C° 0.7 mm 2 mps 757 mmHg 89%
    21:00 +29°C° 0.7 mm 2 mps 757 mmHg 89%
    22:00 +29°C° 0.7 mm 2 mps 758 mmHg 90%
    23:00 +29°C° 0.4 mm 2 mps 757 mmHg 89%

    Tomorrow, 22 October, Sunday

    Time Temperature Precipitation Wind Pressure Humidity
    00:00 +29°C° 0.4 mm 2 mps 757 mmHg 88%
    01:00 +29°C° 0.4 mm 2 mps 757 mmHg 87%
    02:00 +29°C° 0 mm 2 mps 757 mmHg 85%
    03:00 +29°C° 0 mm 2 mps 756 mmHg 83%
    04:00 +29°C° 0 mm 2 mps 756 mmHg 81%
    05:00 +29°C° 0 mm 2 mps 756 mmHg 80%
    06:00 +29°C° 0 mm 2 mps 757 mmHg 79%
    07:00 +29°C° 0 mm 2 mps 757 mmHg 78%
    08:00 +31°C° 0 mm 2 mps 757 mmHg 69%
    09:00 +34°C° 0 mm 2 mps 758 mmHg 59%
    10:00 +36°C° 0 mm 2 mps 758 mmHg 50%
    11:00 +37°C° 0 mm 2 mps 758 mmHg 49%
    12:00 +37°C° 0 mm 3 mps 757 mmHg 49%
    13:00 +38°C° 0 mm 4 mps 757 mmHg 48%
    14:00 +37°C° 0.4 mm 4 mps 756 mmHg 55%
    15:00 +35°C° 0.4 mm 4 mps 756 mmHg 61%
    16:00 +34°C° 0.4 mm 4 mps 755 mmHg 68%
    17:00 +33°C° 0.7 mm 3 mps 756 mmHg 75%
    18:00 +31°C° 0.7 mm 3 mps 756 mmHg 82%
    19:00 +29°C° 0.7 mm 2 mps 756 mmHg 89%
    20:00 +29°C° 0.7 mm 2 mps 757 mmHg 89%
    21:00 +29°C° 0.7 mm 2 mps 757 mmHg 89%
    22:00 +29°C° 0.7 mm 1 mps 758 mmHg 89%
    23:00 +29°C° 0.2 mm 1 mps 758 mmHg 88%

    Day after tomorrow, 23 October, Monday

    Time Temperature Precipitation Wind Pressure Humidity
    00:00 +29°C° 0.2 mm 1 mps 757 mmHg 88%
    01:00 +29°C° 0.2 mm 1 mps 757 mmHg 88%
    02:00 +29°C° 0.1 mm 1 mps 757 mmHg 87%
    03:00 +28°C° 0.1 mm 1 mps 756 mmHg 87%
    04:00 +28°C° 0.1 mm 1 mps 756 mmHg 86%
    05:00 +29°C° 0 mm 1 mps 756 mmHg 85%
    06:00 +29°C° 0 mm 2 mps 756 mmHg 84%
    07:00 +29°C° 0 mm 2 mps 757 mmHg 84%
    08:00 +31°C° 0 mm 2 mps 757 mmHg 74%
    09:00 +34°C° 0 mm 2 mps 757 mmHg 65%
    10:00 +36°C° 0 mm 2 mps 758 mmHg 56%
    11:00 +36°C° 0 mm 3 mps 757 mmHg 56%
    12:00 +36°C° 0 mm 3 mps 757 mmHg 56%
    13:00 +36°C° 0 mm 4 mps 756 mmHg 56%
    14:00 +35°C° 0.2 mm 4 mps 756 mmHg 62%
    15:00 +34°C° 0.2 mm 4 mps 755 mmHg 69%
    16:00 +33°C° 0.2 mm 3 mps 754 mmHg 75%
    17:00 +31°C° 0.9 mm 3 mps 755 mmHg 80%
    18:00 +30°C° 0.9 mm 2 mps 755 mmHg 85%
    19:00 +30°C° 0.9 mm 2 mps 756 mmHg 90%
    20:00 +30°C° 0.8 mm 2 mps 756 mmHg 90%
    21:00 +29°C° 0.8 mm 2 mps 757 mmHg 90%
    22:00 +29°C° 0.8 mm 2 mps 757 mmHg 90%
    23:00 +29°C° 0.5 mm 2 mps 757 mmHg 91%

    24 October, Tuesday

    Time Temperature Precipitation Wind Pressure Humidity
    00:00 +29°C° 0.5 mm 2 mps 757 mmHg 92%
    01:00 +29°C° 0.5 mm 2 mps 756 mmHg 92%
    02:00 +29°C° 0.2 mm 2 mps 756 mmHg 92%
    03:00 +29°C° 0.2 mm 2 mps 756 mmHg 92%
    04:00 +29°C° 0.2 mm 2 mps 755 mmHg 91%
    05:00 +29°C° 0.4 mm 2 mps 756 mmHg 91%
    06:00 +29°C° 0.4 mm 2 mps 756 mmHg 90%
    07:00 +29°C° 0.4 mm 2 mps 756 mmHg 89%
    08:00 +30°C° 0.2 mm 2 mps 757 mmHg 85%
    09:00 +31°C° 0.2 mm 2 mps 757 mmHg 81%
    10:00 +32°C° 0.2 mm 2 mps 757 mmHg 76%
    11:00 +32°C° 0.2 mm 2 mps 757 mmHg 76%
    12:00 +32°C° 0.2 mm 2 mps 756 mmHg 77%
    13:00 +32°C° 0.2 mm 2 mps 756 mmHg 77%
    14:00 +32°C° 0.3 mm 2 mps 755 mmHg 79%
    15:00 +31°C° 0.3 mm 2 mps 755 mmHg 81%
    16:00 +31°C° 0.3 mm 2 mps 754 mmHg 84%
    17:00 +30°C° 0.7 mm 1 mps 755 mmHg 87%
    18:00 +30°C° 0.7 mm 1 mps 755 mmHg 89%
    19:00 +29°C° 0.7 mm 1 mps 756 mmHg 92%
    20:00 +29°C° 1.2 mm 1 mps 756 mmHg 93%
    21:00 +29°C° 1.2 mm 2 mps 757 mmHg 93%
    22:00 +29°C° 1.2 mm 2 mps 757 mmHg 94%
    23:00 +28°C° 0.5 mm 2 mps 757 mmHg 92%

    25 October, Wednesday

    Time Temperature Precipitation Wind Pressure Humidity
    00:00 +28°C° 0.5 mm 2 mps 757 mmHg 91%
    01:00 +28°C° 0.5 mm 1 mps 756 mmHg 90%
    02:00 +28°C° 0.6 mm 1 mps 756 mmHg 89%
    03:00 +28°C° 0.6 mm 1 mps 756 mmHg 88%
    04:00 +28°C° 0.6 mm 1 mps 755 mmHg 87%
    05:00 +27°C° 2.3 mm 2 mps 756 mmHg 88%
    06:00 +27°C° 2.3 mm 2 mps 756 mmHg 88%
    07:00 +27°C° 2.3 mm 2 mps 757 mmHg 88%
    08:00 +28°C° 3.1 mm 2 mps 757 mmHg 88%
    09:00 +28°C° 3.1 mm 2 mps 758 mmHg 88%
    10:00 +28°C° 3.1 mm 1 mps 758 mmHg 88%
    11:00 +28°C° 2 mm 1 mps 758 mmHg 90%
    12:00 +29°C° 2 mm 1 mps 757 mmHg 91%
    13:00 +29°C° 2 mm 1 mps 757 mmHg 92%
    14:00 +28°C° 2.3 mm 1 mps 756 mmHg 93%
    15:00 +28°C° 2.3 mm 1 mps 756 mmHg 93%
    16:00 +28°C° 2.3 mm 1 mps 755 mmHg 94%
    17:00 +28°C° 1.6 mm 1 mps 756 mmHg 94%
    18:00 +28°C° 1.6 mm 1 mps 756 mmHg 94%
    19:00 +28°C° 1.6 mm 1 mps 757 mmHg 94%
    20:00 +28°C° 1.5 mm 1 mps 757 mmHg 94%
    21:00 +28°C° 1.5 mm 1 mps 758 mmHg 95%
    22:00 +28°C° 1.5 mm 1 mps 758 mmHg 95%
    23:00 +28°C° 2.3 mm 1 mps 758 mmHg 94%

    26 October, Thursday

    Time Temperature Precipitation Wind Pressure Humidity
    00:00 +28°C° 2.3 mm 1 mps 757 mmHg 94%
    01:00 +28°C° 2.3 mm 1 mps 757 mmHg 94%
    02:00 +28°C° 2.1 mm 1 mps 756 mmHg 93%
    03:00 +28°C° 2.1 mm 1 mps 756 mmHg 93%
    04:00 +28°C° 2.1 mm 1 mps 756 mmHg 93%
    05:00 +28°C° 1.9 mm 1 mps 756 mmHg 93%
    06:00 +28°C° 1.9 mm 1 mps 757 mmHg 93%
    07:00 +28°C° 1.9 mm 1 mps 757 mmHg 94%
    08:00 +28°C° 0.8 mm 1 mps 757 mmHg 93%
    09:00 +28°C° 0.8 mm 1 mps 758 mmHg 92%
    10:00 +29°C° 0.8 mm 2 mps 758 mmHg 92%
    11:00 +29°C° 0.5 mm 2 mps 758 mmHg 91%
    12:00 +29°C° 0.5 mm 2 mps 757 mmHg 90%
    13:00 +29°C° 0.5 mm 2 mps 757 mmHg 90%
    14:00 +29°C° 0.1 mm 1 mps 756 mmHg 90%
    15:00 +29°C° 0.1 mm 1 mps 756 mmHg 89%
    16:00 +29°C° 0.1 mm 1 mps 755 mmHg 89%
    17:00 +29°C° 0.3 mm 1 mps 756 mmHg 90%
    18:00 +28°C° 0.3 mm 1 mps 756 mmHg 91%
    19:00 +28°C° 0.3 mm 2 mps 757 mmHg 92%
    20:00 +28°C° 0.7 mm 2 mps 757 mmHg 92%
    21:00 +28°C° 0.7 mm 2 mps 758 mmHg 91%
    22:00 +28°C° 0.7 mm 2 mps 758 mmHg 91%
    23:00 +28°C° 0.6 mm 2 mps 758 mmHg 91%
    Show more